Moses Lake, WA

2:03 AM PDT on April 25, 2018 (GMT -0700)
Grant County International

Weather History for KMWH - July, 2013

Change the Weather History Date:

Sunday, July 28, 2013

  Actual Average Record
Temperature  
Mean Temperature 73 °F 74 °F  
Max Temperature 88 °F 91 °F 104 °F (1998)
Min Temperature 57 °F 57 °F 50 °F (1985)
Degree Days  
Heating Degree Days 0 0  
Month to date heating degree days 0 6  
Since 1 June heating degree days 49 61  
Since 1 July heating degree days 0 6  
Cooling Degree Days 8 9  
Month to date cooling degree days 341 215  
Year to date cooling degree days 499 325  
Since 1 June cooling degree days 449 300  
Growing Degree Days 26 (Base 50)    
Moisture  
Dew Point 45 °F    
Average Humidity 40    
Maximum Humidity 60    
Minimum Humidity 19    
Precipitation  
Precipitation 0.00 in 0.01 in 0.02 in (1983)
Month to date precipitation T 0.37  
Year to date precipitation 3.75 5.14  
Sea Level Pressure  
Sea Level Pressure 29.80 in    
Wind  
Wind Speed 6 mph (SW)    
Max Wind Speed 7 mph    
Max Gust Speed 8 mph    
Visibility 10 miles    
Events      
T = Trace of Precipitation, MM = Missing Value Source: NWS Daily Summary

Daily Weather History Graph

Daily Weather History Graph

Search for Another Location

Airport or City:

Astronomy

Jul. 28, 2013 Rise Set
Actual Time 5:31 AM PDT 8:35 PM PDT
Civil Twilight 4:55 AM PDT 9:11 PM PDT
Nautical Twilight 4:08 AM PDT 9:57 PM PDT
Astronomical Twilight 3:10 AM PDT 10:54 PM PDT
Moon 11:26 PM PDT (7/28) 12:51 PM PDT (7/28)
Length of Visible Light 16h 16m
Length of Day
15h 03m
Waning Gibbous, 60% of the Moon is Illuminated
Jul 28
Waning Gibbous
Jul 29
Last Quarter
Aug 6
New
Aug 14
First Quarter
Aug 20
Full

Hourly Weather History & Observations

Time (PDT) Temp. Dew Point Humidity Pressure Visibility Wind Dir Wind Speed Gust Speed Precip Events Conditions
12:52 AM 68.0 °F 48.9 °F 50% 29.81 in 10.0 mi SSW 5.8 mph - N/A   Clear
1:52 AM 66.0 °F 48.0 °F 52% 29.81 in 10.0 mi West 3.5 mph - N/A   Clear
2:52 AM 66.0 °F 45.0 °F 47% 29.80 in 10.0 mi West 4.6 mph - N/A   Clear
3:52 AM 66.0 °F 46.9 °F 50% 29.81 in 10.0 mi West 8.1 mph - N/A   Clear
4:52 AM 64.9 °F 46.9 °F 52% 29.81 in 10.0 mi West 3.5 mph - N/A   Clear
5:52 AM 63.0 °F 46.9 °F 56% 29.83 in 10.0 mi Calm Calm - N/A   Clear
6:52 AM 63.0 °F 48.0 °F 58% 29.84 in 10.0 mi WSW 8.1 mph - N/A   Clear
7:52 AM 66.9 °F 46.0 °F 47% 29.84 in 10.0 mi Calm Calm - N/A   Clear
8:52 AM 68.0 °F 48.9 °F 50% 29.85 in 10.0 mi Calm Calm - N/A   Clear
9:52 AM 72.0 °F 48.9 °F 44% 29.85 in 10.0 mi Calm Calm - N/A   Clear
10:52 AM 78.1 °F 44.1 °F 30% 29.84 in 10.0 mi Variable 3.5 mph - N/A   Clear
11:52 AM 80.1 °F 43.0 °F 27% 29.83 in 10.0 mi SSW 6.9 mph - N/A   Clear
12:52 PM 82.9 °F 44.1 °F 25% 29.82 in 10.0 mi SSW 9.2 mph - N/A   Clear
1:52 PM 84.9 °F 44.1 °F 24% 29.81 in 10.0 mi SSW 9.2 mph - N/A   Clear
2:52 PM 86.0 °F 43.0 °F 22% 29.80 in 10.0 mi South 11.5 mph - N/A   Clear
3:52 PM 87.1 °F 42.1 °F 21% 29.78 in 10.0 mi SSW 9.2 mph - N/A   Clear
4:52 PM 88.0 °F 42.1 °F 20% 29.77 in 10.0 mi SSW 8.1 mph - N/A   Clear
5:52 PM 86.0 °F 39.0 °F 19% 29.76 in 10.0 mi South 6.9 mph - N/A   Clear
6:52 PM 84.0 °F 41.0 °F 22% 29.76 in 10.0 mi South 6.9 mph - N/A   Clear
7:52 PM 80.1 °F 42.1 °F 26% 29.76 in 10.0 mi SSE 5.8 mph - N/A   Clear
8:52 PM 79.0 °F 48.0 °F 34% 29.76 in 10.0 mi South 8.1 mph - N/A   Clear
9:52 PM 75.9 °F 46.9 °F 36% 29.77 in 10.0 mi SSW 6.9 mph - N/A   Clear
10:52 PM 66.9 °F 50.0 °F 54% 29.78 in 10.0 mi NE 8.1 mph - N/A   Clear
11:52 PM 64.9 °F 46.9 °F 52% 29.80 in 10.0 mi NNE 6.9 mph - N/A   Clear